STARLINK-2591

operational
NORAD ID: 48361 Int'l Des: 2021-038 Owner: SPXS Country: US Constellation: starlink
LEOCIRCULARSTARLINK_TYPE

About STARLINK-2591

Description loading...

Live Position

Loading 3D Globe...

Upcoming Passes

Altitude History

Altitude vs Time

uPlot chart will show altitude changes over time

Two-Line Element Set

1 48361U 21038J 25250.85332895 -.00000611 00000-0 -22090-4 0 9990
2 48361 53.0541 102.4025 0001260 114.2474 245.8647 15.06424511239467
Epoch: Sep 7, 2025 • Age: 19 hours

Current Status

Altitude 553.0 km
Velocity 7.59 km/s
Sub-Earth Point -18.77°S, 136.07°W
Launch Date May 4, 2021
Age 4.3 years
Type internet

Technical Details

Classification Payload
Mass 260.00 kg
Dry Mass 248.00 kg
Total Mass 260.00 kg
Length 0.20 m
Diameter 2.80 m
Span 9.00 m
Shape Box + pan
Manufacturer SPXS
Bus Type Starlink
Phase Status In Orbit
Owner/State SPXS/US

Large Constellations

Loading constellations...